SL-16 DEB, 22338

Orbit data source: Space-Track

SL-16 DEB, 22338 is space debris in LEO originally from a launch on Fri, 25 Dec 1992 UTC launched from the Tyuratam Missile And Space Complex (TTMTR). Debris objects in space refer to the collection of defunct objects orbiting the Earth. Examples of debris include non-operational satellites, rocket bodies, and fragments generated from explosions, collisions, or faulty payload assembly.

Loading next visibility...
Identifier
22338, 1992-093AB
Orbit
LEO
Country
Flag of CISCIS
Related business
Manufacturer
Unknown
Mission
Spacecraft
Bus & Motor
Unknown
Mass
Unknown
Launch date (UTC)
1992-12-25 (33 years ago)
Launch vehicle
Unknown
Launch site
Tyuratam Missile And Space Complex (TTMTR)
Object type
Payload
Rocket body
Debris
Shape & HBR
Unknown shape, 0.1 m
Radar Cross Section
Small (<0.1 m²)

Expand to show TLE details & history
Last TLE update: 1 day ago

TLE from 1 day ago
0 SL-16 DEB
1 22338U 92093AB  26036.24051240  .00007169  00000-0  10110-2 0  9994
2 22338  70.6155  25.3044 0070292 269.2183 109.0228 14.75881591736044
Epoch: 2026-02-05T05:46Z
TLE epoch observation values (Epoch: 2026-02-05T05:46:20.271Z)
Latitude
17.88722°
Longitude
169.80948°
Altitude
660.619 km
Speed
7.52 km/s
True Right ascension
02h 07m 09s
True Declination
17° 47' 08"
Sunlit
Object was in daylight at epoch
Visualization orbit readout
Latitude
Unknown
Longitude
Unknown
Altitude
Unknown
Speed
Unknown
Apparent Right ascension
Unknown
Apparent Declination
Unknown
Sunlit
N/A
Visualization observer readout
Local Sidereal Time
12:06:53
Azimuth
Unknown
Elevation
Unknown
Doppler factor
Unknown
Orbital elements
Apogee altitude
689.592 km
Perigee altitude
590.925 km
Semi-major axis
7,018.396 km
Eccentricity
0.00703
Inclination
70.6155°
RAAN
25.3044°
Arg. of periapsis
269.2183°
True anomaly
109.7821°
Mean anomaly
109.0228°
Eccentric anomaly
109.40267°
Mean motion
3.69136 °/min
Orbital period
97.53 mins
BSTAR
0.001011
Loading maneuver chart data...
Computing Atmospheric mass density...
Loading historical data...
Loading historical data...
Loading historical data...
Loading historical data...
Loading historical data...
Loading historical data...
Loading historical data...

Documentation

Showing up to 5 results
|